Home   Weather   Happy Valley-Goose Bay   Past weeks

Flag for Canada Past Weather in Happy Valley-Goose Bay, Newfoundland and Labrador, Canada — Yesterday and Last 2 Weeks

Now
46 °F

Passing clouds.


Feels Like: 42 °F
Forecast: N/A
Wind: 9 mph from Northeast

Location: Goose

Current Time: Sep 27, 2016 at 5:54:50 PM

Latest Report: Sep 27, 2016 at 5:00 PM


Visibility: 15 mi

Pressure: 30.16 "Hg

Humidity: 82%

Dew Point: 41 °F

Location of Happy Valley-Goose BayLocation

Past Weather in Happy Valley-Goose Bay — Graph

°F

Happy Valley-Goose Bay Temperature Yesterday

Maximum temperature yesterday: 46 °F (at 1:00 PM)
Minimum temperature yesterday: 36 °F (at 4:00 AM)
Average temperature yesterday: 40 °F

High & Low Weather Summary for the Past Weeks

 TemperatureHumidityPressure
High64 °F (Sep 16, 3:00 PM)100% (Sep 21, 4:46 AM)30.43 "Hg (Sep 21, 4:46 AM)
Low28 °F (Sep 19, 6:00 AM)32% (Sep 17, 5:00 PM)29.33 "Hg (Sep 12, 4:00 PM)
Average47 °F72%29.91 "Hg
* Reported Sep 12 4:00 PM — Sep 27 4:00 PM, Happy Valley-Goose Bay, Weather by CustomWeather, © 2016

Note: Actual official high and low records may vary slightly from our data, if they occured in-between our weather recording intervals... More about our weather records

Advertising

Happy Valley-Goose Bay Weather History for the Previous 24 Hours

Scroll right to see more
 ConditionsComfort  
Time TempWeatherWind HumidityBarometerVisibility
4:00 PM
Tue, Sep 27
46 °FPassing clouds.9 mph82%30.14 "Hg15 mi
3:00 PM48 °FPassing clouds.8 mph82%30.11 "Hg15 mi
2:00 PM45 °FPartly sunny.5 mph93%30.10 "Hg15 mi
1:00 PM43 °FDrizzle. Fog.5 mph93%30.09 "Hg4 mi
12:00 PM41 °FSprinkles. More clouds than sun.5 mph93%30.08 "Hg15 mi
11:00 AM39 °FSprinkles. Mostly cloudy.8 mph93%30.06 "Hg15 mi
10:00 AM37 °FSprinkles. Low clouds.6 mph93%30.05 "Hg15 mi
9:00 AM34 °FSnow flurries. Overcast.6 mph93%30.03 "Hg8 mi
8:48 AM34 °FSnow flurries. Mostly cloudy.6 mph93%30.02 "Hg8 mi
8:00 AM34 °FSnow flurries. Cloudy.7 mph87%30.00 "Hg15 mi
7:00 AM34 °FCloudy.7 mph87%29.98 "Hg15 mi
6:00 AM34 °FPassing clouds.8 mph87%29.96 "Hg15 mi
5:00 AM34 °FPassing clouds.8 mph87%29.93 "Hg15 mi
4:00 AM34 °FPartly cloudy.6 mph87%29.91 "Hg15 mi
3:00 AM32 °FPartly cloudy.7 mph93%29.89 "Hg15 mi
2:00 AM32 °FPassing clouds.6 mph93%29.87 "Hg15 mi
1:00 AM32 °FPassing clouds.6 mph93%29.85 "Hg15 mi
12:00 AM36 °FPassing clouds.7 mph87%29.84 "Hg15 mi
11:00 PM
Mon, Sep 26
36 °FPassing clouds.10 mph93%29.82 "Hg15 mi
10:00 PM36 °FSprinkles. Fog.6 mph93%29.81 "Hg5 mi
9:00 PM36 °FSprinkles. Mostly cloudy.16 mph93%29.79 "Hg8 mi
8:00 PM37 °FSprinkles. Mostly cloudy.15 mph87%29.77 "Hg9 mi
7:00 PM41 °FSprinkles. Mostly cloudy.14 mph93%29.73 "Hg10 mi
6:00 PM41 °FSprinkles. Cloudy.9 mph93%29.70 "Hg15 mi
5:52 PM41 °FSprinkles. Cloudy.10 mph93%29.70 "Hg15 mi
5:00 PM45 °FSprinkles. Cloudy.6 mph81%29.69 "Hg15 mi
Weather by CustomWeather, © 2016

See weather overviewHow to use our weather pages